GW2412 Weather Reports


Display with metric or nautical units.
time (UTC)temp
F
wind
direction
speed
MPH
gust
MPH
rain 1hr
in
rain 24hr
in
rain mn
in
humidity
%
barometer
mb
20260508132518 49 346 1.0 3.0 0.00 0.00 0.00 1 1012.7
20260508132017 48 346 1.0 3.0 0.00 0.00 0.00 1 1012.9
20260508131848 47 346 2.0 4.0 0.00 0.00 0.00 1 1012.8
20260508131021 46 346 2.0 4.0 0.00 0.00 0.00 1 1012.8
20260508130521 45 346 3.0 4.0 0.00 0.00 0.00 1 1013.0
20260508130115 44 346 2.0 4.0 0.00 0.00 0.00 1 1013.0
20260508125524 44 346 2.0 4.0 0.00 0.00 0.00 1 1012.9
20260508125026 43 346 3.0 5.0 0.00 0.00 0.00 1 1013.0
20260508124611 42 346 4.0 5.0 0.00 0.00 0.00 1 1013.0
20260508124018 40 346 3.0 5.0 0.00 0.00 0.00 1 1012.9
20260508123529 39 346 3.0 6.0 0.00 0.00 0.00 1 1012.9
20260508123046 38 346 4.0 6.0 0.00 0.00 0.00 1 1013.0
20260508122511 37 346 3.0 5.0 0.00 0.00 0.00 1 1013.0
20260508122029 36 346 3.0 5.0 0.00 0.00 0.00 1 1013.1
20260508121550 36 346 2.0 5.0 0.00 0.00 0.00 1 1013.1
20260508121017 36 346 3.0 4.0 0.00 0.00 0.00 1 1013.0
20260508120517 35 346 2.0 4.0 0.00 0.00 0.00 1 1012.9
20260508120052 35 346 2.0 4.0 0.00 0.00 0.00 1 1013.0
20260508115518 35 346 2.0 4.0 0.00 0.00 0.00 1 1013.0
20260508115016 35 346 3.0 4.0 0.00 0.00 0.00 1 1013.1
20260508114541 36 346 3.0 4.0 0.00 0.00 0.00 1 1013.1
20260508114019 37 346 3.0 4.0 0.00 0.00 0.00 1 1013.3
20260508113519 38 346 1.0 5.0 0.00 0.00 0.00 1 1013.0
20260508113054 38 346 3.0 6.0 0.00 0.00 0.00 1 1013.0
20260508112515 39 346 4.0 6.0 0.00 0.00 0.00 1 1013.0
20260508112016 39 346 4.0 6.0 0.00 0.00 0.00 1 1013.0
20260508111539 39 360 2.0 4.0 0.00 0.00 0.00 1 1013.0
20260508111018 40 360 2.0 5.0 0.00 0.00 0.00 1 1013.1
20260508110514 41 360 2.0 6.0 0.00 0.00 0.00 1 1013.2
20260508110128 41 336 3.0 5.0 0.00 0.00 0.00 1 1013.2
20260508105516 42 336 2.0 5.0 0.00 0.00 0.00 1 1013.2
20260508105015 43 336 3.0 8.0 0.00 0.00 0.00 1 1013.2
20260508104603 44 336 6.0 8.0 0.00 0.00 0.00 1 1013.3
20260508104014 44 336 2.0 6.0 0.00 0.00 0.00 1 1013.3
20260508103515 42 336 5.0 6.0 0.00 0.00 0.00 1 1013.4
20260508103052 42 336 2.0 3.0 0.00 0.00 0.00 1 1013.4
20260508102517 43 336 1.0 4.0 0.00 0.00 0.00 1 1013.3
20260508102017 44 336 3.0 5.0 0.00 0.00 0.00 1 1013.3
20260508101555 44 336 4.0 5.0 0.00 0.00 0.00 1 1013.4
20260508101014 44 336 3.0 5.0 0.00 0.00 0.00 1 1013.4
20260508100514 44 336 4.0 5.0 0.00 0.00 0.00 1 1013.3
20260508100053 43 336 4.0 6.0 0.00 0.00 0.00 1 1013.5
20260508095515 43 324 4.0 5.0 0.00 0.00 0.00 1 1013.5
20260508095020 42 324 4.0 5.0 0.00 0.00 0.00 1 1013.5
20260508094831 43 324 4.0 6.0 0.00 0.00 0.00 1 1013.5
20260508094015 43 324 4.0 6.0 0.00 0.00 0.00 1 1013.5
20260508093515 43 339 4.0 6.0 0.00 0.00 0.00 1 1013.6
20260508093056 42 339 4.0 6.0 0.00 0.00 0.00 1 1013.6
20260508092516 42 307 4.0 5.0 0.00 0.00 0.00 1 1013.6
20260508092017 41 307 3.0 5.0 0.00 0.00 0.00 1 1013.4
20260508091848 41 288 3.0 5.0 0.00 0.00 0.00 1 1013.6
20260508091019 41 289 2.0 5.0 0.00 0.00 0.00 1 1013.4
20260508090518 41 289 3.0 7.0 0.00 0.00 0.00 1 1013.5
20260508090330 39 309 4.0 7.0 0.00 0.00 0.00 1 1013.5
20260508085516 39 347 4.0 5.0 0.00 0.00 0.00 1 1013.4
20260508085014 40 303 2.0 5.0 0.00 0.00 0.00 1 1013.4
20260508084612 40 303 2.0 5.0 0.00 0.00 0.00 1 1013.5
20260508084018 40 303 4.0 5.0 0.00 0.00 0.00 1 1013.5
20260508083516 41 325 3.0 5.0 0.00 0.00 0.00 1 1013.4
20260508083054 41 325 3.0 6.0 0.00 0.00 0.00 1 1013.3
20260508082514 42 325 3.0 9.0 0.00 0.00 0.00 1 1013.2
20260508082015 43 349 5.0 9.0 0.00 0.00 0.00 1 1013.3
20260508081613 44 5 6.0 11.0 0.00 0.00 0.00 1 1013.3
20260508081018 46 330 9.0 11.0 0.00 0.00 0.00 1 1013.2
20260508080516 46 338 9.0 11.0 0.00 0.00 0.00 1 1013.2
20260508080108 45 333 9.0 10.0 0.00 0.00 0.00 1 1013.3
20260508075518 43 338 5.0 9.0 0.00 0.00 0.00 1 1013.3
20260508075023 44 360 4.0 9.0 0.00 0.00 0.00 1 1013.3
20260508074604 45 337 7.0 9.0 0.00 0.00 0.00 1 1013.5
20260508074016 45 360 6.0 9.0 0.00 0.00 0.00 1 1013.6
20260508073518 44 313 6.0 8.0 0.00 0.00 0.00 1 1013.6
20260508073103 45 298 6.0 8.0 0.00 0.00 0.00 1 1013.6
20260508072519 46 294 5.0 9.0 0.00 0.00 0.00 1 1013.6
20260508072019 47 311 6.0 9.0 0.00 0.00 0.00 1 1013.5
20260508071605 48 307 7.0 9.0 0.00 0.00 0.00 1 1013.5
20260508071026 49 296 7.0 9.0 0.00 0.00 0.00 1 1013.4
20260508070518 49 311 7.0 9.0 0.00 0.00 0.00 1 1013.4
20260508070041 49 302 6.0 9.0 0.00 0.00 0.00 1 1013.5
20260508065515 49 296 7.0 10.0 0.00 0.00 0.00 1 1013.3
20260508065034 47 291 7.0 10.0 0.00 0.00 0.00 1 1013.4
20260508065031 44 252 7.0 10.0 0.00 0.00 0.00 1 1013.5
20260508064016 43 355 5.0 8.0 0.00 0.00 0.00 1 1013.4
20260508063524 42 5 4.0 8.0 0.00 0.00 0.00 1 1013.4
20260508063110 41 360 5.0 8.0 0.00 0.00 0.00 1 1013.4
20260508062516 41 360 3.0 5.0 0.00 0.00 0.00 1 1013.5
20260508062016 42 360 4.0 8.0 0.00 0.00 0.00 1 1013.4
20260508061617 42 360 4.0 8.0 0.00 0.00 0.00 1 1013.3
20260508061017 42 360 5.0 6.0 0.00 0.00 0.00 1 1013.4
20260508060522 42 360 3.0 8.0 0.00 0.00 0.00 1 1013.4
20260508060127 43 355 5.0 8.0 0.00 0.00 0.00 1 1013.3
20260508055519 43 355 4.0 6.0 0.00 0.00 0.00 1 1013.3
20260508055021 42 355 4.0 8.0 0.00 0.00 0.00 1 1013.2
20260508054640 43 355 4.0 6.0 0.00 0.00 0.00 1 1013.3
20260508054018 44 355 2.0 6.0 0.00 0.00 0.00 1 1013.3
20260508053516 45 355 3.0 8.0 0.00 0.00 0.00 1 1013.3
20260508053136 45 355 5.0 8.0 0.00 0.00 0.00 1 1013.1
20260508052517 46 344 4.0 8.0 0.00 0.00 0.00 1 1013.3
20260508052017 47 344 2.0 8.0 0.00 0.00 0.00 1 1013.1
20260508051928 50 360 4.0 8.0 0.00 0.00 0.00 1 1013.1
20260508051016 50 307 6.0 8.0 0.00 0.00 0.00 1 1013.0
20260508050525 49 355 2.0 9.0 0.00 0.00 0.00 1 1013.1
20260508050110 50 355 3.0 11.0 0.00 0.00 0.00 1 1013.1
20260508045523 50 350 9.0 11.0 0.00 0.00 0.00 1 1013.0
20260508045013 50 343 8.0 10.0 0.00 0.00 0.00 1 1013.1
20260508044557 50 350 8.0 10.0 0.00 0.00 0.00 1 1013.0
20260508044021 50 346 8.0 9.0 0.00 0.00 0.00 1 1013.1
20260508043520 50 344 8.0 9.0 0.00 0.00 0.00 1 1013.1
20260508043039 50 335 6.0 9.0 0.00 0.00 0.00 1 1013.1
20260508042516 50 304 5.0 7.0 0.00 0.00 0.00 1 1013.1
20260508042016 50 304 4.0 8.0 0.00 0.00 0.00 1 1013.0
20260508041551 49 304 6.0 8.0 0.00 0.00 0.00 1 1013.0
20260508041014 50 290 1.0 5.0 0.00 0.00 0.00 1 1012.8
20260508040517 51 290 2.0 5.0 0.00 0.00 0.00 1 1013.0
20260508040109 52 274 3.0 7.0 0.00 0.00 0.00 1 1013.1
20260508035516 52 296 4.0 8.0 0.00 0.00 0.00 1 1013.0
20260508035022 51 277 5.0 8.0 0.00 0.00 0.00 1 1013.1
20260508034603 52 239 4.0 7.0 0.00 0.00 0.00 1 1013.0
20260508034028 53 239 4.0 8.0 0.00 0.00 0.00 1 1013.0
20260508033527 54 239 4.0 8.0 0.00 0.00 0.00 1 1012.8
20260508033051 55 228 4.0 12.0 0.00 0.00 0.00 1 1012.8
20260508032518 56 228 5.0 12.0 0.00 0.00 0.00 1 1013.0
20260508032015 56 226 10.0 12.0 0.00 0.00 0.00 1 1012.9
20260508031846 57 224 4.0 9.0 0.00 0.00 0.00 1 1012.9
20260508031015 57 224 7.0 9.0 0.00 0.00 0.00 1 1012.9
20260508030518 58 229 4.0 9.0 0.00 0.00 0.00 1 1012.7
20260508030121 58 234 6.0 12.0 0.00 0.00 0.00 1 1012.8
20260508025514 58 234 9.0 14.0 0.00 0.00 0.00 1 1012.8
20260508025016 59 249 11.0 15.0 0.00 0.00 0.00 1 1012.8
20260508024608 59 291 8.0 12.0 0.00 0.00 0.00 1 1012.7
20260508024016 58 266 3.0 8.0 0.00 0.00 0.00 1 1012.7
20260508023516 58 279 3.0 8.0 0.00 0.00 0.00 1 1012.4
20260508023053 57 281 2.0 9.0 0.00 0.00 0.00 1 1012.5
20260508022514 56 257 5.0 9.0 0.00 0.00 0.00 1 1012.4
20260508022020 58 223 6.0 8.0 0.00 0.00 0.00 1 1012.5
20260508021535 59 338 2.0 5.0 0.00 0.00 0.00 1 1012.1
20260508021017 60 338 3.0 5.0 0.00 0.00 0.00 1 1012.0
20260508020520 60 338 4.0 6.0 0.00 0.00 0.00 1 1012.1
20260508020053 61 338 3.0 9.0 0.00 0.00 0.00 1 1012.1
20260508015516 62 338 6.0 11.0 0.00 0.00 0.00 1 1012.0
20260508015015 63 344 7.0 13.0 0.00 0.00 0.00 1 1012.0
20260508014612 63 344 9.0 13.0 0.00 0.00 0.00 1 1011.9
20260508014017 64 342 9.0 11.0 0.00 0.00 0.00 1 1011.7
20260508013516 64 346 6.0 11.0 0.00 0.00 0.00 1 1011.8
20260508013114 64 355 7.0 12.0 0.00 0.00 0.00 1 1011.7
20260508012518 64 360 9.0 13.0 0.00 0.00 0.00 1 1011.7
20260508012015 65 319 7.0 11.0 0.00 0.00 0.00 1 1011.7
20260508011608 64 308 5.0 13.0 0.00 0.00 0.00 1 1011.7
20260508011016 64 306 10.0 13.0 0.00 0.00 0.00 1 1011.6
20260508010514 64 294 7.0 14.0 0.00 0.00 0.00 1 1011.6
20260508010048 65 308 9.0 15.0 0.00 0.00 0.00 1 1011.5
20260508005516 66 305 11.0 15.0 0.00 0.00 0.00 1 1011.6
20260508005016 66 333 9.0 16.0 0.00 0.00 0.00 1 1011.5
20260508004556 66 301 9.0 17.0 0.00 0.00 0.00 1 1011.5
20260508004014 66 306 12.0 18.0 0.00 0.00 0.00 1 1011.5
20260508003519 65 355 11.0 19.0 0.00 0.00 0.00 1 1011.6
20260508003108 65 310 13.0 19.0 0.00 0.00 0.00 1 1011.6
20260508002516 66 329 12.0 19.0 0.00 0.00 0.00 1 1011.4
20260508002018 66 313 12.0 21.0 0.00 0.00 0.00 1 1011.4
20260508001546 65 333 16.0 21.0 0.00 0.00 0.00 1 1011.3
20260508001015 64 5 10.0 18.0 0.00 0.00 0.00 1 1011.4
20260508000516 64 346 15.0 20.0 0.00 0.00 0.00 1 1011.5
20260508000054 64 336 12.0 20.0 0.00 0.00 0.00 1 1011.5
20260507235516 64 334 11.0 17.0 0.00 0.00 0.00 1 1011.5
20260507235020 65 345 12.0 17.0 0.00 0.00 0.00 1 1011.5
20260507234611 67 304 9.0 17.0 0.00 0.00 0.00 1 1011.5
20260507234016 65 317 12.0 17.0 0.00 0.00 0.00 1 1011.5
20260507233520 64 315 12.0 16.0 0.00 0.00 0.00 1 1011.5
20260507233055 65 355 9.0 18.0 0.00 0.00 0.00 1 1011.7
20260507232511 66 347 9.0 20.0 0.00 0.00 0.00 1 1011.7
20260507232019 66 336 16.0 20.0 0.00 0.00 0.00 1 1011.5
20260507231555 65 340 14.0 23.0 0.00 0.00 0.00 1 1011.5
20260507231010 64 346 16.0 23.0 0.00 0.00 0.00 1 1011.4
20260507230539 64 331 13.0 19.0 0.00 0.00 0.00 1 1011.5
20260507230110 64 313 14.0 23.0 0.00 0.00 0.00 1 1011.5
20260507225516 64 338 17.0 23.0 0.00 0.00 0.00 1 1011.5
20260507225018 65 345 14.0 19.0 0.00 0.00 0.00 1 1011.5
20260507224927 65 320 12.0 19.0 0.00 0.00 0.00 1 1011.7
20260507224019 65 355 14.0 21.0 0.00 0.00 0.00 1 1011.4
20260507223522 64 319 15.0 21.0 0.00 0.00 0.00 1 1011.6
20260507223059 64 355 15.0 25.0 0.00 0.00 0.00 1 1011.6
20260507222514 65 336 18.0 25.0 0.00 0.00 0.00 1 1011.5
20260507222018 65 360 17.0 25.0 0.00 0.00 0.00 1 1011.3
20260507221543 66 314 16.0 22.0 0.00 0.00 0.00 1 1011.7
20260507221017 66 307 16.0 25.0 0.00 0.00 0.00 1 1011.8
20260507220517 64 300 14.0 22.0 0.00 0.00 0.00 1 1011.8
20260507220048 64 311 17.0 24.0 0.00 0.00 0.00 1 1011.6
20260507215516 65 321 17.0 24.0 0.00 0.00 0.00 1 1011.7
20260507215015 65 296 15.0 23.0 0.00 0.00 0.00 1 1011.8
20260507214546 65 303 18.0 23.0 0.00 0.00 0.00 1 1011.8
20260507214016 65 340 12.0 25.0 0.00 0.00 0.00 1 1012.0
20260507213517 65 323 15.0 25.0 0.00 0.00 0.00 1 1011.9
20260507213050 65 314 12.0 25.0 0.00 0.00 0.00 1 1012.1
20260507212516 66 306 16.0 24.0 0.00 0.00 0.00 1 1012.0
20260507212016 66 322 20.0 23.0 0.00 0.00 0.00 1 1012.0
20260507211552 66 339 10.0 20.0 0.00 0.00 0.00 1 1012.3
20260507211016 65 292 14.0 20.0 0.00 0.00 0.00 1 1012.1
20260507210518 65 304 13.0 20.0 0.00 0.00 0.00 1 1012.3
20260507210113 65 281 14.0 20.0 0.00 0.00 0.00 1 1012.3
20260507205516 64 309 14.0 23.0 0.00 0.00 0.00 1 1012.3
20260507205018 65 325 18.0 25.0 0.00 0.00 0.00 1 1012.3
20260507204555 65 336 20.0 25.0 0.00 0.00 0.00 1 1012.3
20260507204017 66 281 17.0 24.0 0.00 0.00 0.00 1 1012.4
20260507203516 64 310 15.0 21.0 0.00 0.00 0.00 1 1012.4
20260507203046 64 296 9.0 19.0 0.00 0.00 0.00 1 1012.5
20260507202516 64 282 14.0 23.0 0.00 0.00 0.00 1 1012.5
20260507202016 64 339 15.0 23.0 0.00 0.00 0.00 1 1012.6
20260507201554 64 305 13.0 23.0 0.00 0.00 0.00 1 1012.6
20260507201020 65 314 15.0 23.0 0.00 0.00 0.00 1 1012.4
20260507200519 64 344 16.0 26.0 0.00 0.00 0.00 1 1012.6
20260507200106 64 337 17.0 26.0 0.00 0.00 0.00 1 1012.2
20260507195517 64 343 18.0 25.0 0.00 0.00 0.00 1 1012.2
20260507195017 64 311 18.0 26.0 0.00 0.00 0.00 1 1012.2
20260507194551 63 332 19.0 26.0 0.00 0.00 0.00 1 1012.1
20260507194016 62 329 14.0 21.0 0.00 0.00 0.00 1 1012.3
20260507193518 62 329 16.0 21.0 0.00 0.00 0.00 1 1012.1
20260507193113 62 313 13.0 21.0 0.00 0.00 0.00 1 1012.2
20260507192515 62 329 16.0 21.0 0.00 0.00 0.00 1 1012.0
20260507192027 62 291 14.0 22.0 0.00 0.00 0.00 1 1012.1
20260507191558 62 300 13.0 22.0 0.00 0.00 0.00 1 1012.2
20260507191028 63 312 14.0 23.0 0.00 0.00 0.00 1 1012.2
20260507190518 64 337 11.0 23.0 0.00 0.00 0.00 1 1012.1
20260507190051 64 325 12.0 23.0 0.00 0.00 0.00 1 1012.1
20260507185514 64 309 11.0 23.0 0.00 0.00 0.00 1 1012.3
20260507185013 64 281 12.0 21.0 0.00 0.00 0.00 1 1012.1
20260507184536 64 327 11.0 19.0 0.00 0.00 0.00 1 1012.1
20260507184015 63 346 11.0 19.0 0.00 0.00 0.00 1 1012.0
20260507183514 62 329 13.0 19.0 0.00 0.00 0.00 1 1012.0
20260507183100 62 261 13.0 23.0 0.00 0.00 0.00 1 1012.2
20260507182518 63 287 17.0 23.0 0.00 0.00 0.00 1 1012.1
20260507182021 62 317 14.0 20.0 0.00 0.00 0.00 1 1012.2
20260507181547 63 329 14.0 23.0 0.00 0.00 0.00 1 1012.1
20260507181019 63 313 16.0 23.0 0.00 0.00 0.00 1 1012.1
20260507180522 63 335 17.0 23.0 0.00 0.00 0.00 1 1012.1
20260507180059 61 321 15.0 21.0 0.00 0.00 0.00 1 1012.2
20260507175518 61 338 15.0 22.0 0.00 0.00 0.00 1 1012.4
20260507175019 63 298 13.0 24.0 0.00 0.00 0.00 1 1012.5
20260507174548 63 304 14.0 21.0 0.00 0.00 0.00 1 1012.2
20260507174017 62 302 14.0 23.0 0.00 0.00 0.00 1 1012.3
20260507173520 61 336 14.0 23.0 0.00 0.00 0.00 1 1012.4
20260507173128 62 303 14.0 24.0 0.00 0.00 0.00 1 1012.4
20260507172518 62 338 18.0 24.0 0.00 0.00 0.00 1 1012.5
20260507172018 61 337 15.0 25.0 0.00 0.00 0.00 1 1012.5
20260507171551 61 334 14.0 25.0 0.00 0.00 0.00 1 1012.7
20260507171020 61 307 13.0 26.0 0.00 0.00 0.00 1 1012.6
20260507170516 61 317 20.0 26.0 0.00 0.00 0.00 1 1012.4
20260507170056 60 317 19.0 25.0 0.00 0.00 0.00 1 1012.6
20260507165519 61 317 15.0 21.0 0.00 0.00 0.00 1 1012.7
20260507165018 62 360 15.0 21.0 0.00 0.00 0.00 1 1012.7
20260507164600 61 333 15.0 21.0 0.00 0.00 0.00 1 1012.7
20260507164021 60 327 15.0 21.0 0.00 0.00 0.00 1 1012.7
20260507163516 61 336 14.0 20.0 0.00 0.00 0.00 1 1012.7
20260507163053 61 338 13.0 21.0 0.00 0.00 0.00 1 1012.8
20260507162515 61 346 15.0 21.0 0.00 0.00 0.00 1 1012.7
20260507162030 61 344 16.0 21.0 0.00 0.00 0.00 1 1012.8
20260507161604 61 360 17.0 20.0 0.00 0.00 0.00 1 1012.8
20260507161015 60 325 14.0 22.0 0.00 0.00 0.00 1 1012.8
20260507160517 59 302 17.0 23.0 0.00 0.00 0.00 1 1012.7
20260507155519 60 325 14.0 22.0 0.00 0.00 0.00 1 1012.8
20260507155015 60 346 15.0 22.0 0.00 0.00 0.00 1 1012.7
20260507154545 59 338 11.0 20.0 0.00 0.00 0.00 1 1012.8
20260507154017 59 333 16.0 20.0 0.00 0.00 0.00 1 1012.5
20260507153516 58 315 10.0 20.0 0.00 0.00 0.00 1 1012.5
20260507153047 57 248 2.0 8.0 0.00 0.00 0.00 1 1012.9
20260507152515 56 264 2.0 4.0 0.00 0.00 0.00 1 1012.7
20260507152019 55 264 2.0 4.0 0.00 0.00 0.00 1 1012.5
20260507151557 54 264 1.0 4.0 0.00 0.00 0.00 1 1012.4
20260507151019 54 264 2.0 4.0 0.00 0.00 0.00 1 1012.4
20260507150516 53 264 2.0 4.0 0.00 0.00 0.00 1 1012.5
20260507150056 53 264 2.0 6.0 0.00 0.00 0.00 1 1012.5
20260507145516 53 264 3.0 7.0 0.00 0.00 0.00 1 1012.6
20260507145029 53 264 2.0 8.0 0.00 0.00 0.00 1 1012.5
20260507144600 53 244 3.0 9.0 0.00 0.00 0.00 1 1012.7
20260507144018 53 263 6.0 9.0 0.00 0.00 0.00 1 1012.6
20260507143516 53 273 7.0 10.0 0.00 0.00 0.00 1 1012.6
20260507143059 53 289 7.0 10.0 0.00 0.00 0.00 1 1012.6
20260507142516 52 279 3.0 9.0 0.00 0.00 0.00 1 1012.6
20260507142017 52 279 5.0 9.0 0.00 0.00 0.00 1 1012.6
20260507141610 52 317 3.0 8.0 0.00 0.00 0.00 1 1012.4
20260507141021 52 317 4.0 10.0 0.00 0.00 0.00 1 1012.5
20260507140519 52 304 6.0 11.0 0.00 0.00 0.00 1 1012.7
20260507140112 52 305 7.0 11.0 0.00 0.00 0.00 1 1012.6
20260507135515 53 315 8.0 11.0 0.00 0.00 0.00 1 1012.7
20260507135017 53 325 8.0 11.0 0.00 0.00 0.00 1 1012.7
20260507134603 52 321 4.0 9.0 0.00 0.00 0.00 1 1012.6
20260507134019 52 319 5.0 10.0 0.00 0.00 0.00 1 1012.4
20260507133518 51 323 7.0 10.0 0.00 0.00 0.00 1 1012.3
20260507133050 51 325 7.0 10.0 0.00 0.00 0.00 1 1012.4